Regional Weather Roundup
Issued by NWS

Home | Current Version | Previous Version | Graphics & Text | Print | Product List | Glossary On
Versions: 1 2 3 4 5 6 7 8 9 10 11 12 13 14 15 16 17 18 19 20 21 22 23 24 25 26 27 28 29 30 31 32 33 34 35 36 37 38 39 40 41 42 43 44 45 46 47 48 49 50
000
ASUS43 KLMK 260502
RWRKY
KENTUCKY REGIONAL WEATHER ROUNDUP
NATIONAL WEATHER SERVICE LOUISVILLE KY
1200 AM EST WED NOV 26 2014

NOTE "FAIR" INDICATES FEW OR NO CLOUDS BELOW 12,000 FEET
WITH NO SIGNIFICANT WEATHER AND/OR OBSTRUCTIONS TO VISIBILITY.

KYZ001>023-026-027-061>063-070>075-260600-
WESTERN AND SOUTH CENTRAL KENTUCKY

CITY           SKY/WX    TMP DP  RH WIND       PRES   REMARKS
PADUCAH        CLEAR     27  24  89 CALM      30.18F
HENDERSON      CLEAR     30  25  80 N5        30.19F WCI  25
OWENSBORO      CLEAR     30  27  89 MISG      30.20F
HOPKINSVILLE   CLEAR     32  28  83 N5        30.17F WCI  28
BOWLING GREEN  PTCLDY    35  27  72 NW3       30.17F
GLASGOW        NOT AVBL
$$

KYZ024-025-028>034-038-045-046-053-260600-
NORTH CENTRAL KENTUCKY

CITY           SKY/WX    TMP DP  RH WIND       PRES   REMARKS
LOUISVILLE/SDF MOCLDY    33  26  75 N8        30.18F WCI  26
LOUISVILLE/LOU MOCLDY    33  27  78 N5        30.19F WCI  29
FORT KNOX      PTCLDY    29  26  88 NW3       30.15F
$$

KYZ035>037-039>044-047>052-055>060-089>105-260600-
NORTHEAST KENTUCKY

CITY           SKY/WX    TMP DP  RH WIND       PRES   REMARKS
LEXINGTON      MOCLDY    34  28  79 N6        30.14S WCI  29
COVINGTON      CLOUDY    31  24  75 N6        30.16F WCI  25
FRANKFORT      CLOUDY    35  28  75 N7        30.15S WCI  29
$$

KYZ054-064>069-076>088-106>120-260600-
SOUTHEAST KENTUCKY

CITY           SKY/WX    TMP DP  RH WIND       PRES   REMARKS
JACKSON        CLOUDY    38  28  67 CALM      30.12F
LONDON         CLOUDY    40  29  64 N3        30.10F
SOMERSET       NOT AVBL
MIDDLESBORO    NOT AVBL
MONTICELLO     CLOUDY    39  28  65 NE5       30.13F
$$



USA.gov is the U.S. government's official web portal to all federal, state and local government web resources and services.